Location: Newark
(52.2090°N, 4.1550°W)
Time: 18:12:24
(UTC+00:00)

Vanguard 2 - All Passes

Search period start: 14 October 2019 00:00
Search period end: 24 October 2019 00:00
Orbit: 554 x 2937 km, 32.9° (Epoch: 14 October)

Date Brightness Start Highest point End Pass type
(mag) Time Alt. Az. Time Alt. Az. Time Alt. Az.
14 Oct - 01:16:47 10° WSW 01:29:37 27° SSW 01:42:14 10° SSE visible
14 Oct - 03:36:14 10° SW 03:37:57 10° SW 03:39:38 10° SW visible
14 Oct - 19:10:06 10° SSW 19:18:40 23° SSE 19:29:34 10° ESE visible
14 Oct - 21:15:36 10° SW 21:27:23 35° S 21:42:11 10° ESE visible
14 Oct - 23:23:59 10° WSW 23:37:20 35° SSW 23:52:08 10° SE visible
15 Oct - 01:35:16 10° WSW 01:46:53 22° SSW 01:58:22 10° S night (unlit)
15 Oct - 19:26:46 10° SSW 19:35:52 26° SSE 19:47:48 10° ESE visible
15 Oct - 21:33:02 10° SW 21:44:53 36° S 21:59:48 10° ESE visible
15 Oct - 23:41:52 10° WSW 23:54:49 32° SSW 00:09:08 10° SE visible
16 Oct - 01:54:15 10° WSW 02:04:05 18° SW 02:13:52 10° S night (unlit)
16 Oct - 17:41:31 10° SSE 17:45:41 13° SE 17:50:30 10° ESE visible
16 Oct - 19:43:44 10° SSW 19:53:11 29° SSE 20:05:50 10° ESE visible
16 Oct - 21:50:35 10° WSW 22:02:25 36° S 22:17:17 10° SE visible
16 Oct - 23:59:55 10° WSW 00:12:16 29° SSW 00:25:50 10° SSE visible
17 Oct - 02:14:17 10° WSW 02:21:13 14° SW 02:28:08 10° SSW night (unlit)
17 Oct - 17:56:56 10° S 18:02:44 16° SE 18:09:56 10° ESE visible
17 Oct - 20:00:55 10° SW 20:10:35 31° SSE 20:23:41 10° ESE visible
17 Oct - 22:08:15 10° WSW 22:19:58 34° S 22:34:36 10° SE visible
18 Oct - 00:18:11 10° WSW 00:29:39 25° SSW 00:42:11 10° SSE visible
18 Oct - 18:13:13 10° S 18:19:52 20° SSE 18:28:34 10° ESE visible
18 Oct - 20:18:15 10° SW 20:28:02 32° S 20:41:24 10° ESE visible
18 Oct - 22:26:04 10° WSW 22:37:31 32° SSW 22:51:42 10° SE visible
19 Oct - 00:36:50 10° WSW 00:47:00 20° SSW 00:58:00 10° S visible
19 Oct - 18:29:56 10° SSW 18:37:07 23° SSE 18:46:50 10° ESE visible
19 Oct - 20:35:44 10° SW 20:45:33 33° S 20:58:58 10° ESE visible
19 Oct - 22:44:00 10° WSW 22:55:02 29° SSW 23:08:33 10° SSE visible
20 Oct - 00:56:09 10° WSW 01:04:18 16° SW 01:12:59 10° S night (unlit)
20 Oct - 18:46:57 10° SSW 18:54:27 25° SSE 19:04:50 10° ESE visible
20 Oct - 20:53:21 10° WSW 21:03:05 32° S 21:16:22 10° SE visible
20 Oct - 23:02:09 10° WSW 23:12:32 25° SSW 23:25:04 10° SSE visible
21 Oct - 01:17:24 10° SW 01:21:33 11° SW 01:25:49 10° SSW night (unlit)
21 Oct - 17:00:53 10° SSE 17:04:31 13° SE 17:08:48 10° ESE daylight
21 Oct - 19:04:11 10° SW 19:11:50 27° SSE 19:22:39 10° ESE visible
21 Oct - 21:11:05 10° WSW 21:20:39 30° S 21:33:35 10° SE visible
21 Oct - 23:20:36 10° WSW 23:30:01 21° SSW 23:41:06 10° SSE visible
22 Oct - 17:17:00 10° S 17:21:42 16° SSE 17:27:38 10° ESE daylight
22 Oct - 19:21:35 10° SW 19:29:20 28° S 19:40:19 10° ESE visible
22 Oct - 21:28:57 10° WSW 21:38:14 27° S 21:50:33 10° SE visible
22 Oct - 23:39:35 10° WSW 23:47:27 17° SSW 23:56:27 10° S visible
23 Oct - 17:33:43 10° SSW 17:38:58 19° SSE 17:45:56 10° ESE visible
23 Oct - 19:39:08 10° SW 19:46:51 28° S 19:57:49 10° SE visible
23 Oct - 21:47:01 10° WSW 21:55:49 24° SSW 22:07:12 10° SSE visible
